Regional Weather Roundup
Issued by NWS Portland, ME

Home | Current Version | Previous Version | Text Only | Print | Product List | Glossary On
Versions: 1 2 3 4 5 6 7 8 9 10 11 12 13 14 15 16 17 18 19 20 21 22 23 24 25 26 27 28 29 30 31 32 33 34 35 36 37 38 39 40 41 42 43 44 45 46 47 48 49 50
000
ASUS41 KGYX 280410
RWRGYX
WEATHER ROUNDUP FOR MAINE AND NEW HAMPSHIRE
NATIONAL WEATHER SERVICE GRAY ME
1200 AM EDT MON JUL 28 2014

MEZ002-005-006-010-012-015-018-020-021-024-026-027-029-280500-
MAINE

CITY           SKY/WX    TMP DP  RH WIND       PRES   REMARKS
PORTLAND       MOCLDY    66  65  96 SW3       29.68F
SANFORD        CLOUDY    68  64  88 CALM      29.68S
BAR HARBOR     CLOUDY    64  64 100 CALM      29.71F
WISCASSET      CLOUDY    67  65  93 CALM      29.69F FOG
ROCKLAND       CLOUDY    64  63  94 S3        29.69S
FRYEBURG       CLOUDY    68  66  94 CALM      29.68S FOG
LEWISTONAUBURN CLOUDY    64  63  94 SE3       29.68F VSB 1/2
AUGUSTA        FOG       64  64 100 CALM      29.70S VSB 1/2
WATERVILLE     CLOUDY    64  63  94 CALM      29.66F
BANGOR         CLOUDY    65  63  93 S8        29.71F
GREENVILLE       N/A     63  62  97 VRB3      29.70R
MILLINOCKET    CLOUDY    66  62  87 S6        29.72S
HOULTON        CLOUDY    65  63  93 S6        29.71F FOG
PRESQUE ISLE   CLOUDY    66  61  82 S8        29.69S
FRENCHVILLE    CLOUDY    63  62  97 S8        29.67S
CARIBOU        CLOUDY    65  64  97 S8        29.68S
$$

NHZ002-005-008-009-011-012-014-280500-
NEW HAMPSHIRE

CITY           SKY/WX    TMP DP  RH WIND       PRES   REMARKS
PORTSMOUTH     MOCLDY    67  66  97 E2        29.66F
ROCHESTER      FOG       68  67  96 CALM      29.67F VSB 1/2
NASHUA         CLEAR     71  70  97 CALM      29.68F
MANCHESTER     PTCLDY    72  69  90 S7        29.66F FOG
CONCORD        MOCLDY    69  69 100 S3        29.67F
LACONIA          N/A     70  66  88 W3        29.66S
PLYMOUTH       FOG       66  65  96 CALM      29.67S VSB 3/4
BERLIN         CLOUDY    62  61  96 SE3       29.69F
WHITEFIELD     LGT RAIN  62  60  93 W3        29.70S
JAFFREY        PTCLDY    66  65  96 S3        29.71F FOG
LEBANON        FOG       64  63  96 CALM      29.66F VSB 1/4
MT WASHINGTON  LGT RAIN  50  50 100 W30         N/A  VSB 0
$$

VTZ005-007-008-280500-
VERMONT

CITY           SKY/WX    TMP DP  RH WIND       PRES   REMARKS
ST JOHNSBURY     N/A     62  61  96 MISG      29.66F
MONTPELIER     FOG       60  59  96 CALM      29.72F VSB 1
BURLINGTON     PTCLDY    65  63  93 CALM      29.66R
$$

MAZ007-012-024-CTZ003-RIZ002-NYZ038-NYZ072-280500-
SOUTHERN NEW ENGLAND AND NY

CITY           SKY/WX    TMP DP  RH WIND       PRES   REMARKS
BOSTON         PTCLDY    70  68  93 CALM      29.68F
WORCESTER      CLEAR     65  62  90 SW6       29.71F
NANTUCKET      CLOUDY    68  67  96 S5        29.74S FOG
PROVIDENCE     MOCLDY    70  68  93 CALM      29.71S FOG
HARTFORD       MOCLDY    66  63  90 NE5       29.66F
ALBANY         CLOUDY    70  67  90 CALM      29.66F
NEW YORK CITY  TSTM      81  72  74 SW7       29.63F
$$

ANZ081-ANZ082-ANZ150-NHZ014-MEZ023>029-280500-
COASTAL MARINE OBSERVATIONS

STATION/POSITION TIME  TEMP    WIND        PRES    WAVE
                       AIR SEA DIR/SP/G            HT/PER
                 (UTC) (F)     (DEG/KT/KT) (MB)    (FT/S)
MATINICUS ROCK   0300          180/ 17/ 18 1005.6F
PORTLAND WX BUOY 0400   63 60  220/  2/  2 1004.6F   3/ 5
WELLS            0400   62 55  180/  2/  4 1004.1R
ISLE OF SHOALS   0300   67     180/ 12/ 13 1004.6S
JEFFREYS LEDGE   0400      62                N/A     3/ 5
CASHES LEDGE BUO 0400   67 65  180/ 12/ 14 1004.8F   4/ 5
$$

.............KEY..............
   WCI - WIND CHILL
   TC  - TEMPERATURE IN CELSIUS
   VSB - VISIBILITY IN MILES
   HX  - HEAT INDEX
   FAIR- INDICATES FEW OR NO CLOUDS BELOW 12,000 FT, WITH NO
         SIGNIFICANT WEATHER AND/OR OBSTRUCTIONS TO VISIBILITY.





USA.gov is the U.S. government's official web portal to all federal, state and local government web resources and services.